Dewpoint
71 71 71 72 72 73 73 72 73 72 72 72 73 73 71 71 72 73 72 74 75 74 74 73 72 72 71 71 71 71 71 71 72 72 72 72 72 72 72 72 73 73 73
70 70 70 71 71 72 72 72 72 71 71 72 74 73 69 72 71 71 72 72 74 75 74 74 74 73 72 72 70 71 71 71 71 72 72 72 72 72 72 72 72 72 73
70 72 72 71 71 72 72 72 72 72 72 73 72 72 70 70 70 70 71 72 72 76 76 75 75 74 73 72 72 70 71 71 70 70 71 72 72 72 73 72 72 73 73
71 72 72 72 72 72 73 72 72 70 71 69 67 68 68 68 69 70 72 73 74 73 74 76 75 75 75 73 72 72 70 72 70 70 70 70 71 72 73 73 73 73 74
72 72 71 71 71 71 72 72 72 72 70 68 66 66 66 66 69 72 70 71 72 73 73 73 75 74 76 76 74 73 72 71 72 70 70 70 71 72 73 74 74 74 74
71 71 72 72 72 71 72 72 71 72 71 70 71 68 66 66 68 67 68 69 70 69 70 73 73 73 75 75 76 74 73 72 72 70 69 71 72 72 72 73 73 74 74
73 73 73 72 72 71 71 72 72 71 70 71 67 66 66 65 65 66 68 69 69 69 70 70 72 73 73 75 74 74 74 73 72 71 70 70 71 71 72 72 73 73 74
73 74 74 73 72 72 72 72 71 71 70 72 69 67 65 65 68 69 68 69 69 69 70 70 73 73 72 72 73 74 74 74 73 72 70 70 71 72 72 72 72 73 74
72 71 73 73 72 72 72 71 70 71 69 70 71 68 63 62 66 67 69 69 68 69 68 72 73 73 72 71 73 74 74 74 74 73 72 71 71 71 71 71 72 72 72
72 72 73 74 72 73 73 72 72 72 71 69 71 72 69 68 64 64 67 68 66 66 68 72 72 72 72 71 73 74 75 74 74 74 73 72 71 71 70 71 71 72 71
72 73 73 73 72 72 73 73 73 72 73 72 71 70 70 69 69 67 65 66 66 66 67 70 72 71 72 72 72 73 75 74 74 74 74 73 73 72 72 71 71 71 71
71 71 74 74 73 72 73 73 72 74 74 74 73 72 71 69 68 68 66 65 65 64 68 68 71 72 72 72 73 74 75 75 74 74 74 74 74 73 73 72 71 71 72
71 71 72 74 74 73 73 74 73 74 75 74 74 72 73 71 71 70 67 67 63 64 65 69 69 72 73 72 73 74 75 74 74 73 72 73 74 74 74 72 72 72 71
70 70 71 73 74 74 73 74 73 74 75 74 73 73 73 72 72 72 70 65 62 64 64 66 70 71 73 73 74 75 73 72 73 72 71 72 72 73 73 73 73 73 73
69 69 70 71 74 74 74 74 74 74 74 74 74 73 73 73 73 71 70 66 64 61 62 64 65 68 68 68 68 73 72 72 72 72 71 70 71 71 72 72 72 72 72
70 71 70 70 72 73 74 74 73 74 74 74 74 73 73 73 73 71 67 67 68 65 63 66 66 63 68 67 68 72 72 72 71 71 70 70 70 70 71 71 72 71 71
68 71 73 72 70 73 74 74 74 74 74 73 74 74 73 73 73 72 68 65 64 65 60 59 64 63 63 63 64 67 68 69 67 69 70 70 69 69 70 70 70 70 70
69 71 73 74 73 72 73 75 74 74 74 73 73 73 73 73 72 71 66 61 63 64 61 60 61 61 61 62 66 66 64 65 65 67 66 67 68 68 68 68 68 68 68
71 70 73 73 73 74 74 75 75 74 74 73 74 74 73 73 71 68 65 63 63 64 63 61 60 62 62 62 61 61 62 62 62 65 62 63 62 64 66 65 65 65 64
71 71 72 72 74 73 74 74 76 75 75 75 75 74 73 73 71 69 66 64 65 64 64 62 59 58 59 61 62 60 60 62 61 60 61 61 63 63 63 65 65 65 63
71 70 69 73 72 73 74 74 74 76 76 75 75 74 74 74 71 69 68 65 65 63 61 59 56 59 59 60 60 61 61 61 61 59 58 57 56 56 59 61 62 65 64
70 70 70 68 72 73 69 71 74 75 75 75 74 74 74 72 70 68 67 67 63 58 55 57 58 59 59 61 62 61 61 59 57 59 58 56 57 56 58 58 61 62 62
70 70 70 70 68 70 68 69 72 75 75 75 74 73 73 73 68 65 66 65 64 63 60 59 59 59 59 60 59 56 56 57 55 57 57 56 58 57 58 58 60 60 60
70 70 70 70 70 70 68 68 71 75 76 75 75 73 73 69 66 64 62 61 64 61 61 61 58 56 56 55 55 54 54 55 57 57 58 56 58 57 56 56 59 60 60
69 69 70 71 71 70 66 67 69 75 75 74 73 72 71 66 61 64 65 62 59 58 58 58 57 58 59 59 58 54 55 54 53 54 58 56 56 55 56 55 55 59 58
66 68 68 70 70 71 65 65 68 74 74 69 65 67 64 62 61 60 59 58 54 54 51 53 54 54 54 53 56 53 55 53 53 53 56 54 55 55 54 56 56 54 56
Lifted_Index
-2 -3 -3 -3 -3 -2 -3 -3 -3 -3 -3 -3 -3 -1 -0 -1 -2 -2 -2 -3 -3 -3 -3 -3 -2 -2 -1 -1 -1 -1 -2 -2 -3 -3 -4 -4 -4 -4 -4 -5 -5 -6 -6
-2 -3 -3 -3 -3 -3 -3 -3 -3 -3 -3 -3 -3 -1 -0 -1 -1 -2 -2 -3 -3 -4 -4 -3 -3 -2 -2 -1 -1 -1 -1 -2 -2 -3 -3 -3 -4 -4 -4 -4 -5 -5 -6
-3 -3 -3 -3 -3 -3 -3 -3 -4 -3 -3 -3 -3 -1 0 0 -1 -2 -3 -3 -4 -4 -4 -4 -4 -3 -2 -2 -1 -1 -1 -1 -1 -2 -2 -3 -3 -4 -4 -4 -4 -5 -5
-3 -3 -3 -3 -3 -3 -3 -4 -4 -4 -4 -3 -3 -2 0 1 -0 -2 -3 -4 -4 -4 -4 -4 -4 -3 -3 -2 -2 -1 -1 -1 -1 -1 -1 -2 -3 -3 -4 -4 -4 -5 -5
-3 -3 -3 -3 -3 -3 -3 -4 -5 -4 -4 -4 -3 -2 -1 -0 -1 -2 -3 -3 -4 -4 -4 -4 -4 -3 -3 -2 -2 -2 -1 -1 -1 -1 -1 -1 -2 -3 -3 -4 -4 -5 -5
-3 -3 -3 -3 -3 -3 -4 -5 -5 -5 -5 -4 -4 -3 -2 -2 -2 -2 -3 -3 -3 -3 -3 -3 -3 -3 -3 -3 -3 -3 -2 -2 -1 -1 -0 -1 -2 -2 -3 -3 -4 -4 -4
-4 -4 -4 -4 -4 -4 -5 -5 -5 -5 -5 -5 -4 -4 -3 -3 -3 -3 -3 -3 -3 -3 -3 -3 -3 -4 -3 -3 -3 -3 -3 -3 -2 -1 -0 -1 -1 -2 -2 -2 -3 -3 -4
-4 -5 -5 -5 -5 -5 -5 -5 -5 -5 -5 -5 -5 -4 -3 -3 -3 -4 -4 -4 -3 -3 -3 -4 -4 -4 -4 -3 -3 -4 -4 -3 -3 -2 -1 -1 -1 -1 -2 -2 -2 -3 -3
-4 -5 -5 -5 -5 -5 -5 -5 -5 -6 -6 -6 -6 -5 -4 -4 -4 -4 -4 -4 -3 -3 -3 -4 -4 -4 -4 -3 -3 -4 -4 -4 -3 -3 -2 -1 -1 -1 -1 -1 -2 -2 -3
-4 -5 -5 -5 -5 -5 -5 -5 -6 -6 -6 -6 -6 -6 -6 -5 -5 -4 -4 -4 -3 -3 -3 -4 -4 -4 -4 -3 -4 -4 -4 -4 -3 -3 -2 -2 -1 -1 -1 -1 -1 -2 -2
-4 -4 -5 -5 -5 -5 -5 -6 -6 -6 -7 -7 -7 -7 -7 -6 -6 -5 -5 -4 -4 -3 -3 -4 -4 -4 -4 -4 -4 -4 -4 -4 -3 -3 -3 -2 -2 -2 -1 -1 -1 -1 -2
-4 -4 -4 -5 -5 -5 -5 -6 -6 -7 -7 -8 -8 -8 -7 -7 -7 -6 -5 -5 -4 -4 -4 -4 -4 -4 -4 -4 -4 -5 -5 -4 -4 -3 -3 -3 -2 -2 -2 -1 -1 -1 -1
-3 -3 -4 -5 -5 -5 -5 -6 -6 -7 -8 -8 -8 -8 -7 -7 -7 -7 -6 -5 -4 -3 -4 -4 -5 -5 -5 -5 -5 -5 -5 -5 -5 -4 -3 -3 -3 -3 -2 -2 -1 -1 -1
-3 -3 -3 -4 -5 -6 -6 -6 -6 -7 -7 -8 -8 -7 -7 -7 -7 -7 -7 -6 -4 -3 -3 -4 -4 -4 -4 -4 -4 -5 -5 -5 -5 -4 -4 -3 -3 -3 -3 -3 -2 -2 -2
-3 -3 -3 -4 -5 -6 -6 -6 -7 -7 -7 -7 -7 -7 -7 -7 -7 -7 -6 -6 -5 -4 -3 -3 -3 -3 -3 -2 -2 -4 -4 -4 -4 -4 -4 -3 -3 -3 -3 -3 -3 -2 -2
-3 -3 -3 -4 -5 -6 -6 -7 -7 -7 -7 -7 -7 -7 -7 -7 -7 -6 -5 -4 -4 -3 -3 -2 -2 -1 -1 -1 -1 -2 -3 -3 -3 -3 -3 -3 -3 -3 -2 -2 -2 -2 -2
-3 -3 -4 -5 -5 -6 -6 -7 -7 -7 -7 -7 -7 -7 -7 -7 -6 -5 -4 -3 -2 -2 -1 -0 0 1 1 1 0 -0 -1 -1 -1 -1 -1 -1 -1 -1 -1 -1 -2 -2 -2
-3 -3 -5 -5 -6 -6 -6 -7 -7 -8 -8 -8 -7 -7 -7 -7 -6 -5 -4 -2 -1 0 1 2 2 3 3 3 2 1 1 1 1 1 1 1 1 1 1 0 -1 -1 -1
-3 -4 -5 -5 -6 -6 -7 -7 -8 -8 -8 -8 -8 -8 -8 -7 -6 -6 -4 -3 -1 1 1 2 3 4 4 3 3 3 3 3 2 2 2 3 3 3 3 2 1 0 0
-4 -4 -4 -5 -6 -6 -7 -7 -8 -8 -9 -9 -8 -8 -8 -8 -7 -6 -5 -3 -1 0 1 2 3 4 4 3 3 3 3 3 3 3 4 4 5 5 5 4 3 3 2
-4 -4 -4 -5 -5 -6 -6 -7 -7 -8 -9 -9 -9 -9 -8 -8 -7 -6 -5 -4 -1 1 2 3 3 3 3 3 3 3 3 3 3 4 4 5 6 5 5 4 4 4 4
-4 -4 -4 -5 -5 -5 -6 -6 -7 -8 -8 -8 -9 -8 -8 -8 -7 -6 -5 -3 -0 1 2 3 3 3 3 4 4 4 4 5 5 5 6 6 6 6 5 4 5 5 5
-4 -4 -4 -5 -5 -5 -6 -6 -7 -7 -8 -8 -8 -8 -8 -7 -7 -6 -4 -2 -1 1 1 1 2 3 3 4 5 5 6 6 7 7 7 7 7 6 5 5 5 5 5
-4 -4 -5 -5 -5 -5 -6 -6 -7 -8 -8 -8 -8 -8 -8 -7 -6 -5 -3 -2 -1 -0 0 1 1 3 4 5 6 7 8 8 8 8 8 7 7 6 6 5 5 5 5
-4 -4 -5 -5 -6 -6 -6 -7 -8 -8 -8 -9 -9 -8 -7 -7 -6 -4 -3 -2 -1 -0 0 1 1 3 5 7 7 8 8 8 8 8 8 8 8 8 7 6 6 6 6
-4 -4 -5 -6 -6 -6 -7 -7 -8 -8 -9 -9 -8 -8 -7 -6 -5 -4 -3 -2 -1 -0 0 1 1 3 6 8 8 8 8 8 8 8 8 8 9 8 7 6 6 6 6